UAE378 OMDB-VTSP

Flight info

Callsign UAE378
Flight time 5h 41m
Altitude 35000
Route IVURO M428 MUNGA A777 VAXIM P307 PARAR N571 RUPTI L645 UBNEN UBNEN1C
Aircraft B77W/H-SDE1E2E3FGHIJ2J3J4J5M1RWXY/LB1D1

Departure

Time 2026-05-07 13:44
Airport Dubai International Airport (OMDB)

Arrival

Time 2026-05-07 19:26
Airport Phuket International Airport (VTSP)
Time Latitude Longitude Altitude Speed Heading
2026-05-07 13:18 25.24660 55.36301 26 ft 0 kts 31°
2026-05-07 13:27 25.24654 55.36297 26 ft 4 kts 31°
2026-05-07 13:27 25.24632 55.36282 28 ft 4 kts 31°
2026-05-07 13:27 25.24612 55.36268 31 ft 4 kts 38°
2026-05-07 13:28 25.24596 55.36250 31 ft 4 kts 68°
2026-05-07 13:28 25.24593 55.36234 31 ft 4 kts 113°
2026-05-07 13:28 25.24606 55.36212 31 ft 4 kts 134°
2026-05-07 13:28 25.24624 55.36191 31 ft 4 kts 124°
2026-05-07 13:29 25.24628 55.36185 31 ft 0 kts 121°
2026-05-07 13:33 25.24621 55.36198 31 ft 6 kts 121°
2026-05-07 13:34 25.24580 55.36272 31 ft 13 kts 122°
2026-05-07 13:34 25.24481 55.36450 30 ft 15 kts 122°
2026-05-07 13:34 25.24449 55.36551 30 ft 16 kts 92°
2026-05-07 13:35 25.24499 55.36664 30 ft 19 kts 44°
2026-05-07 13:35 25.24569 55.36716 29 ft 11 kts 32°
2026-05-07 13:35 25.24644 55.36767 30 ft 11 kts 31°
2026-05-07 13:35 25.24720 55.36816 27 ft 15 kts 30°
2026-05-07 13:36 25.24751 55.36837 27 ft 0 kts 32°
2026-05-07 13:37 25.24751 55.36838 27 ft 1 kts 34°
2026-05-07 13:38 25.24754 55.36850 27 ft 2 kts 84°
2026-05-07 13:38 25.24741 55.36882 27 ft 7 kts 125°
2026-05-07 13:38 25.24700 55.36946 27 ft 14 kts 125°
2026-05-07 13:38 25.24638 55.37053 27 ft 19 kts 122°
2026-05-07 13:39 25.24556 55.37197 27 ft 25 kts 122°
2026-05-07 13:39 25.24471 55.37350 27 ft 25 kts 121°
2026-05-07 13:39 25.24387 55.37502 26 ft 24 kts 121°
2026-05-07 13:39 25.24310 55.37637 27 ft 22 kts 122°
2026-05-07 13:40 25.24262 55.37741 27 ft 12 kts 92°
2026-05-07 13:40 25.24285 55.37780 27 ft 6 kts 37°
2026-05-07 13:40 25.24328 55.37774 28 ft 8 kts 329°
2026-05-07 13:40 25.24393 55.37756 29 ft 10 kts 15°
2026-05-07 13:41 25.24409 55.37763 29 ft 3 kts 23°
2026-05-07 13:41 25.24433 55.37777 30 ft 5 kts 30°
2026-05-07 13:41 25.24468 55.37802 33 ft 7 kts 32°
2026-05-07 13:41 25.24518 55.37838 34 ft 11 kts 33°
2026-05-07 13:42 25.24599 55.37897 31 ft 18 kts 33°
2026-05-07 13:42 25.24677 55.37955 30 ft 5 kts 35°
2026-05-07 13:42 25.24689 55.37964 30 ft 0 kts 35°
2026-05-07 13:42 25.24702 55.37975 30 ft 4 kts 35°
2026-05-07 13:43 25.24733 55.37997 32 ft 6 kts 30°
2026-05-07 13:43 25.24778 55.38014 34 ft 8 kts
2026-05-07 13:43 25.24832 55.37980 34 ft 11 kts 302°
2026-05-07 13:43 25.24926 55.37814 35 ft 49 kts 302°
2026-05-07 13:44 25.25234 55.37258 37 ft 117 kts 300°
2026-05-07 13:44 25.25761 55.36316 36 ft 168 kts 302°
2026-05-07 13:44 25.26423 55.35156 401 ft 178 kts 303°
2026-05-07 13:44 25.27091 55.33958 889 ft 189 kts 300°
2026-05-07 13:45 25.27760 55.32759 1639 ft 176 kts 298°
2026-05-07 13:45 25.28423 55.31600 2189 ft 187 kts 299°
2026-05-07 13:45 25.29160 55.30318 2429 ft 208 kts 306°
2026-05-07 13:45 25.30428 55.29435 2697 ft 229 kts 349°
2026-05-07 13:46 25.32032 55.29446 3233 ft 236 kts
2026-05-07 13:46 25.33695 55.29517 3812 ft 241 kts 359°
2026-05-07 13:46 25.35376 55.29579 4471 ft 243 kts
2026-05-07 13:46 25.37045 55.29632 5121 ft 243 kts
2026-05-07 13:47 25.38735 55.29715 5753 ft 243 kts
2026-05-07 13:47 25.40287 55.30464 6193 ft 252 kts 39°
2026-05-07 13:47 25.41494 55.31950 6404 ft 269 kts 51°
2026-05-07 13:47 25.42678 55.33596 6922 ft 277 kts 51°
2026-05-07 13:48 25.43900 55.35278 7567 ft 283 kts 51°
2026-05-07 13:48 25.45142 55.36991 8182 ft 289 kts 51°
2026-05-07 13:48 25.46414 55.38736 8836 ft 294 kts 51°
2026-05-07 13:48 25.47709 55.40508 9535 ft 297 kts 51°
2026-05-07 13:49 25.49006 55.42304 10184 ft 301 kts 52°
2026-05-07 13:49 25.50315 55.44179 10567 ft 319 kts 53°
2026-05-07 13:49 25.51706 55.46205 10734 ft 339 kts 56°
2026-05-07 13:49 25.52678 55.48652 10862 ft 360 kts 80°
2026-05-07 13:50 25.52607 55.51471 11113 ft 377 kts 107°
2026-05-07 13:50 25.51465 55.54086 11706 ft 380 kts 123°
2026-05-07 13:50 25.50014 55.56568 12361 ft 388 kts 124°
2026-05-07 13:50 25.49033 55.58224 13000 ft 387 kts 124°
2026-05-07 13:51 25.47566 55.60717 13909 ft 388 kts 123°
2026-05-07 13:51 25.46092 55.63263 14511 ft 396 kts 123°
2026-05-07 13:51 25.44611 55.65853 15221 ft 401 kts 122°
2026-05-07 13:51 25.43122 55.68484 15849 ft 406 kts 120°
2026-05-07 13:52 25.42013 55.71373 16275 ft 413 kts 103°
2026-05-07 13:52 25.41454 55.74512 16948 ft 417 kts 101°
2026-05-07 13:52 25.40868 55.77670 17694 ft 421 kts 102°
2026-05-07 13:52 25.40211 55.80852 18322 ft 427 kts 103°
2026-05-07 13:53 25.39516 55.84069 18889 ft 433 kts 103°
2026-05-07 13:53 25.38810 55.87316 19489 ft 437 kts 103°
2026-05-07 13:53 25.38102 55.90600 20080 ft 442 kts 103°
2026-05-07 13:53 25.37398 55.93890 20641 ft 447 kts 103°
2026-05-07 13:54 25.36681 55.97248 21219 ft 451 kts 103°
2026-05-07 13:54 25.35956 56.00646 21772 ft 457 kts 103°
2026-05-07 13:54 25.35222 56.04084 22297 ft 462 kts 103°
2026-05-07 13:54 25.34481 56.07553 22871 ft 466 kts 103°
2026-05-07 13:55 25.33730 56.11059 23320 ft 472 kts 103°
2026-05-07 13:55 25.32969 56.14607 23761 ft 476 kts 104°
2026-05-07 13:55 25.32088 56.18154 24131 ft 482 kts 109°
2026-05-07 13:55 25.30949 56.21654 24555 ft 485 kts 111°
2026-05-07 13:56 25.29724 56.25124 24757 ft 484 kts 112°
2026-05-07 13:56 25.28513 56.28579 24754 ft 481 kts 111°
2026-05-07 13:56 25.27348 56.32038 24750 ft 480 kts 111°
2026-05-07 13:56 25.26204 56.35529 24770 ft 486 kts 110°
2026-05-07 13:57 25.25052 56.39063 25137 ft 490 kts 110°
2026-05-07 13:57 25.23888 56.42608 25652 ft 492 kts 111°
2026-05-07 13:57 25.22728 56.46122 26051 ft 496 kts 111°
2026-05-07 13:57 25.21540 56.49713 26397 ft 501 kts 111°
2026-05-07 13:58 25.20338 56.53346 26753 ft 506 kts 111°
2026-05-07 13:58 25.19126 56.57009 27123 ft 509 kts 111°
2026-05-07 13:58 25.17881 56.60683 27502 ft 513 kts 112°
2026-05-07 13:58 25.16536 56.64341 27851 ft 516 kts 114°
2026-05-07 13:59 25.15130 56.68005 28182 ft 520 kts 114°
2026-05-07 13:59 25.13699 56.71687 28511 ft 523 kts 114°
2026-05-07 13:59 25.12263 56.75390 28820 ft 527 kts 114°
2026-05-07 13:59 25.10828 56.79121 29114 ft 530 kts 114°
2026-05-07 14:00 25.09394 56.82879 29408 ft 533 kts 114°
2026-05-07 14:00 25.07958 56.86662 29702 ft 536 kts 114°
2026-05-07 14:00 25.06523 56.90454 30012 ft 536 kts 114°
2026-05-07 14:00 25.05086 56.94249 30387 ft 535 kts 114°
2026-05-07 14:01 25.03653 56.98030 30798 ft 533 kts 114°
2026-05-07 14:01 25.02224 57.01798 31197 ft 532 kts 114°
2026-05-07 14:01 25.00795 57.05554 31584 ft 531 kts 114°
2026-05-07 14:01 24.99366 57.09308 31948 ft 531 kts 114°
2026-05-07 14:02 24.97938 57.13054 32318 ft 530 kts 114°
2026-05-07 14:02 24.96511 57.16793 32698 ft 529 kts 114°
2026-05-07 14:02 24.95084 57.20529 33072 ft 528 kts 114°
2026-05-07 14:02 24.93661 57.24252 33451 ft 527 kts 114°
2026-05-07 14:03 24.92254 57.27930 33791 ft 527 kts 114°
2026-05-07 14:03 24.90814 57.31692 34116 ft 526 kts 114°
2026-05-07 14:03 24.89394 57.35397 34435 ft 525 kts 114°
2026-05-07 14:03 24.87976 57.39094 34697 ft 525 kts 114°
2026-05-07 14:04 24.86546 57.42819 34726 ft 529 kts 114°
2026-05-07 14:04 24.83707 57.50206 34743 ft 525 kts 114°
2026-05-07 14:05 24.80874 57.57568 34756 ft 521 kts 114°
2026-05-07 14:05 24.78042 57.64909 34762 ft 521 kts 115°
2026-05-07 14:06 24.75212 57.72239 34758 ft 521 kts 114°
2026-05-07 14:06 24.72451 57.79606 34753 ft 522 kts 111°
2026-05-07 14:07 24.70079 57.87153 34760 ft 522 kts 110°
2026-05-07 14:07 24.67756 57.94729 34757 ft 523 kts 110°
2026-05-07 14:08 24.65406 58.02303 34757 ft 523 kts 110°
2026-05-07 14:08 24.63033 58.09865 34760 ft 523 kts 110°
2026-05-07 14:09 24.60650 58.17428 34761 ft 523 kts 110°
2026-05-07 14:09 24.58267 58.24984 34757 ft 523 kts 110°
2026-05-07 14:10 24.55882 58.32537 34757 ft 523 kts 110°
2026-05-07 14:10 24.53494 58.40082 34759 ft 522 kts 110°
2026-05-07 14:11 24.51106 58.47616 34757 ft 522 kts 110°
2026-05-07 14:11 24.48715 58.55143 34761 ft 522 kts 110°
2026-05-07 14:12 24.46323 58.62659 34759 ft 521 kts 110°
2026-05-07 14:12 24.43941 58.70134 34757 ft 521 kts 110°
2026-05-07 14:13 24.41429 58.77587 34763 ft 520 kts 116°
2026-05-07 14:13 24.38279 58.84716 34763 ft 519 kts 118°
2026-05-07 14:14 24.35055 58.91809 34759 ft 519 kts 118°
2026-05-07 14:14 24.31864 58.98913 34761 ft 519 kts 117°
2026-05-07 14:15 24.28695 59.06025 34761 ft 519 kts 117°
2026-05-07 14:15 24.25547 59.13091 34762 ft 519 kts 117°
2026-05-07 14:16 24.22375 59.20189 34758 ft 519 kts 117°
2026-05-07 14:16 24.19200 59.27283 34764 ft 518 kts 117°
2026-05-07 14:17 24.16021 59.34371 34760 ft 518 kts 117°
2026-05-07 14:17 24.12842 59.41454 34761 ft 518 kts 117°
2026-05-07 14:18 24.09660 59.48530 34763 ft 518 kts 117°
2026-05-07 14:18 24.06473 59.55596 34764 ft 517 kts 117°
2026-05-07 14:19 24.03299 59.62609 34764 ft 517 kts 117°
2026-05-07 14:19 24.00104 59.69661 34765 ft 517 kts 117°
2026-05-07 14:20 23.96910 59.76706 34767 ft 517 kts 117°
2026-05-07 14:20 23.93715 59.83742 34768 ft 517 kts 117°
2026-05-07 14:21 23.90513 59.90784 34767 ft 517 kts 117°
2026-05-07 14:21 23.87309 59.97818 34768 ft 517 kts 117°
2026-05-07 14:22 23.84103 60.04848 34772 ft 517 kts 117°
2026-05-07 14:22 23.80895 60.11871 34767 ft 517 kts 117°
2026-05-07 14:23 23.77682 60.18893 34768 ft 517 kts 117°
2026-05-07 14:23 23.74462 60.25920 34767 ft 516 kts 117°
2026-05-07 14:24 23.71269 60.32880 34770 ft 516 kts 117°
2026-05-07 14:24 23.68051 60.39884 34769 ft 516 kts 117°
2026-05-07 14:25 23.64831 60.46880 34768 ft 516 kts 117°
2026-05-07 14:25 23.61603 60.53885 34768 ft 516 kts 117°
2026-05-07 14:26 23.58377 60.60874 34773 ft 516 kts 117°
2026-05-07 14:26 23.55146 60.67865 34772 ft 516 kts 117°
2026-05-07 14:27 23.51911 60.74853 34770 ft 516 kts 117°
2026-05-07 14:27 23.48675 60.81836 34770 ft 516 kts 117°
2026-05-07 14:28 23.45459 60.88762 34772 ft 516 kts 117°
2026-05-07 14:28 23.42220 60.95730 34773 ft 516 kts 117°
2026-05-07 14:29 23.38976 61.02699 34772 ft 516 kts 117°
2026-05-07 14:29 23.35731 61.09661 34774 ft 516 kts 117°
2026-05-07 14:30 23.32481 61.16627 34773 ft 516 kts 117°
2026-05-07 14:30 23.29283 61.23614 34772 ft 515 kts 116°
2026-05-07 14:31 23.26199 61.30600 34786 ft 516 kts 116°
2026-05-07 14:31 23.24644 61.34126 34949 ft 517 kts 116°
2026-05-07 14:31 23.23087 61.37641 35299 ft 515 kts 116°
2026-05-07 14:31 23.21531 61.41139 35681 ft 512 kts 116°
2026-05-07 14:32 23.19981 61.44613 36050 ft 510 kts 116°
2026-05-07 14:32 23.18435 61.48074 36378 ft 508 kts 116°
2026-05-07 14:32 23.16890 61.51527 36649 ft 508 kts 116°
2026-05-07 14:33 23.13787 61.58458 36757 ft 511 kts 116°
2026-05-07 14:33 23.10685 61.65384 36768 ft 508 kts 117°
2026-05-07 14:34 23.07601 61.72259 36775 ft 505 kts 117°
2026-05-07 14:34 23.04527 61.79102 36777 ft 503 kts 117°
2026-05-07 14:35 23.01458 61.85929 36779 ft 503 kts 116°
2026-05-07 14:35 22.98384 61.92764 36782 ft 504 kts 117°
2026-05-07 14:36 22.95301 61.99608 36786 ft 506 kts 117°
2026-05-07 14:36 22.92229 62.06420 36779 ft 507 kts 117°
2026-05-07 14:37 22.89120 62.13303 36783 ft 508 kts 117°
2026-05-07 14:37 22.84450 62.23622 36786 ft 509 kts 117°
2026-05-07 14:38 22.81333 62.30499 36789 ft 509 kts 117°
2026-05-07 14:38 22.78210 62.37380 36782 ft 508 kts 117°
2026-05-07 14:39 22.75613 62.43093 36787 ft 508 kts 117°
2026-05-07 14:39 22.72490 62.49956 36787 ft 508 kts 117°
2026-05-07 14:40 22.69364 62.56814 36785 ft 507 kts 117°
2026-05-07 14:40 22.66239 62.63663 36789 ft 507 kts 117°
2026-05-07 14:41 22.63109 62.70512 36790 ft 507 kts 117°
2026-05-07 14:41 22.59979 62.77353 36785 ft 507 kts 117°
2026-05-07 14:42 22.56869 62.84139 36789 ft 507 kts 117°
2026-05-07 14:42 22.53735 62.90970 36792 ft 507 kts 117°
2026-05-07 14:43 22.50595 62.97804 36789 ft 507 kts 117°
2026-05-07 14:43 22.47455 63.04631 36793 ft 507 kts 117°
2026-05-07 14:44 22.44310 63.11459 36793 ft 507 kts 117°
2026-05-07 14:44 22.41210 63.18307 36796 ft 507 kts 116°
2026-05-07 14:45 22.38152 63.25178 36791 ft 507 kts 116°
2026-05-07 14:45 22.35091 63.32048 36794 ft 507 kts 116°
2026-05-07 14:46 22.32019 63.38908 36794 ft 507 kts 116°
2026-05-07 14:46 22.28940 63.45762 36798 ft 507 kts 116°
2026-05-07 14:47 22.25863 63.52604 36797 ft 507 kts 116°
2026-05-07 14:47 22.22781 63.59447 36800 ft 507 kts 116°
2026-05-07 14:48 22.19695 63.66291 36804 ft 507 kts 116°
2026-05-07 14:48 22.16609 63.73125 36801 ft 506 kts 116°
2026-05-07 14:49 22.13524 63.79950 36802 ft 506 kts 116°
2026-05-07 14:49 22.10459 63.86719 36800 ft 505 kts 116°
2026-05-07 14:50 22.07374 63.93523 36803 ft 505 kts 116°
2026-05-07 14:50 22.04282 64.00334 36804 ft 506 kts 116°
2026-05-07 14:51 22.01185 64.07147 36805 ft 505 kts 116°
2026-05-07 14:51 21.98091 64.13944 36804 ft 505 kts 116°
2026-05-07 14:52 21.94993 64.20741 36806 ft 505 kts 116°
2026-05-07 14:52 21.91895 64.27527 36811 ft 505 kts 116°
2026-05-07 14:53 21.88796 64.34309 36812 ft 504 kts 116°
2026-05-07 14:53 21.85694 64.41087 36810 ft 504 kts 116°
2026-05-07 14:54 21.82592 64.47857 36811 ft 504 kts 116°
2026-05-07 14:54 21.79501 64.54594 36813 ft 504 kts 116°
2026-05-07 14:55 21.76390 64.61363 36817 ft 504 kts 116°
2026-05-07 14:55 21.73277 64.68131 36811 ft 505 kts 116°
2026-05-07 14:56 21.70156 64.74907 36812 ft 504 kts 116°
2026-05-07 14:56 21.67041 64.81658 36816 ft 504 kts 116°
2026-05-07 14:57 21.63944 64.88366 36819 ft 504 kts 116°
2026-05-07 14:57 21.60819 64.95120 36820 ft 504 kts 116°
2026-05-07 14:58 21.57694 65.01869 36822 ft 505 kts 116°
2026-05-07 14:58 21.54564 65.08620 36823 ft 504 kts 116°
2026-05-07 14:59 21.51434 65.15363 36821 ft 504 kts 117°
2026-05-07 14:59 21.48304 65.22094 36822 ft 503 kts 117°
2026-05-07 15:00 21.45194 65.28777 36821 ft 503 kts 117°
2026-05-07 15:00 21.42062 65.35497 36824 ft 503 kts 117°
2026-05-07 15:01 21.38928 65.42212 36824 ft 503 kts 117°
2026-05-07 15:01 21.35789 65.48931 36827 ft 504 kts 117°
2026-05-07 15:02 21.32646 65.55649 36824 ft 504 kts 117°
2026-05-07 15:02 21.29497 65.62370 36825 ft 504 kts 117°
2026-05-07 15:03 21.26344 65.69093 36826 ft 505 kts 117°
2026-05-07 15:03 21.23208 65.75772 36822 ft 505 kts 117°
2026-05-07 15:04 21.20045 65.82498 36828 ft 505 kts 117°
2026-05-07 15:04 21.16880 65.89220 36823 ft 505 kts 117°
2026-05-07 15:05 21.13717 65.95934 36831 ft 505 kts 117°
2026-05-07 15:05 21.10558 66.02660 36834 ft 505 kts 116°
2026-05-07 15:06 21.07476 66.09435 36829 ft 505 kts 116°
2026-05-07 15:06 21.04420 66.16209 36833 ft 505 kts 116°
2026-05-07 15:07 21.01350 66.22982 36830 ft 505 kts 116°
2026-05-07 15:07 20.98273 66.29739 36831 ft 505 kts 116°
2026-05-07 15:08 20.95190 66.36494 36830 ft 505 kts 116°
2026-05-07 15:08 20.92103 66.43249 36834 ft 505 kts 116°
2026-05-07 15:09 20.89033 66.49958 36834 ft 505 kts 116°
2026-05-07 15:09 20.85940 66.56712 36836 ft 505 kts 116°
2026-05-07 15:10 20.82842 66.63466 36837 ft 505 kts 116°
2026-05-07 15:10 20.79744 66.70213 36835 ft 505 kts 116°
2026-05-07 15:11 20.76646 66.76953 36839 ft 505 kts 116°
2026-05-07 15:11 20.73548 66.83683 36840 ft 505 kts 116°
2026-05-07 15:12 20.70444 66.90416 36839 ft 505 kts 116°
2026-05-07 15:12 20.67340 66.97143 36838 ft 505 kts 116°
2026-05-07 15:13 20.64254 67.03820 36839 ft 505 kts 116°
2026-05-07 15:13 20.61147 67.10537 36838 ft 505 kts 116°
2026-05-07 15:14 20.58037 67.17250 36838 ft 504 kts 116°
2026-05-07 15:14 20.54925 67.23961 36838 ft 504 kts 116°
2026-05-07 15:15 20.51812 67.30665 36837 ft 504 kts 116°
2026-05-07 15:15 20.48693 67.37373 36840 ft 504 kts 116°
2026-05-07 15:16 20.45574 67.44074 36840 ft 504 kts 116°
2026-05-07 15:16 20.42450 67.50776 36842 ft 504 kts 116°
2026-05-07 15:17 20.39325 67.57474 36838 ft 504 kts 116°
2026-05-07 15:17 20.36197 67.64167 36840 ft 504 kts 116°
2026-05-07 15:18 20.33087 67.70817 36840 ft 504 kts 116°
2026-05-07 15:18 20.29954 67.77505 36843 ft 504 kts 116°
2026-05-07 15:19 20.26821 67.84187 36842 ft 504 kts 116°
2026-05-07 15:19 20.23684 67.90868 36843 ft 504 kts 116°
2026-05-07 15:20 20.20547 67.97541 36844 ft 504 kts 116°
2026-05-07 15:20 20.17408 68.04212 36843 ft 504 kts 116°
2026-05-07 15:21 20.14265 68.10881 36845 ft 504 kts 116°
2026-05-07 15:21 20.11122 68.17543 36844 ft 504 kts 116°
2026-05-07 15:22 20.07975 68.24206 36842 ft 503 kts 116°
2026-05-07 15:22 20.04830 68.30858 36844 ft 503 kts 116°
2026-05-07 15:23 20.01681 68.37508 36846 ft 503 kts 116°
2026-05-07 15:23 19.98549 68.44116 36842 ft 503 kts 117°
2026-05-07 15:24 19.95397 68.50758 36846 ft 503 kts 117°
2026-05-07 15:24 19.92242 68.57398 36846 ft 504 kts 117°
2026-05-07 15:25 19.89080 68.64045 36844 ft 504 kts 117°
2026-05-07 15:25 19.85917 68.70685 36842 ft 504 kts 117°
2026-05-07 15:26 19.82751 68.77326 36839 ft 504 kts 117°
2026-05-07 15:26 19.80094 68.82893 36840 ft 504 kts 117°
2026-05-07 15:27 19.76943 68.89486 36841 ft 504 kts 117°
2026-05-07 15:27 19.73765 68.96130 36842 ft 504 kts 117°
2026-05-07 15:28 19.70584 69.02772 36840 ft 505 kts 117°
2026-05-07 15:28 19.67401 69.09410 36843 ft 505 kts 117°
2026-05-07 15:29 19.64212 69.16054 36843 ft 505 kts 117°
2026-05-07 15:29 19.61023 69.22689 36838 ft 505 kts 117°
2026-05-07 15:30 19.57831 69.29327 36839 ft 505 kts 117°
2026-05-07 15:30 19.54635 69.35969 36838 ft 505 kts 117°
2026-05-07 15:31 19.51534 69.42665 36839 ft 506 kts 116°
2026-05-07 15:31 19.48486 69.49382 36837 ft 506 kts 116°
2026-05-07 15:32 19.45426 69.56101 36840 ft 506 kts 116°
2026-05-07 15:32 19.42347 69.62819 36840 ft 506 kts 116°
2026-05-07 15:33 19.39264 69.69523 36836 ft 506 kts 116°
2026-05-07 15:33 19.36195 69.76190 36838 ft 507 kts 116°
2026-05-07 15:34 19.33107 69.82889 36840 ft 507 kts 116°
2026-05-07 15:34 19.30010 69.89604 36839 ft 507 kts 116°
2026-05-07 15:35 19.26913 69.96310 36840 ft 507 kts 116°
2026-05-07 15:35 19.23809 70.03023 36836 ft 507 kts 116°
2026-05-07 15:36 19.20705 70.09726 36837 ft 507 kts 116°
2026-05-07 15:36 19.17603 70.16421 36837 ft 507 kts 116°
2026-05-07 15:37 19.14512 70.23083 36837 ft 507 kts 116°
2026-05-07 15:37 19.11401 70.29779 36836 ft 507 kts 116°
2026-05-07 15:38 19.08289 70.36471 36835 ft 507 kts 116°
2026-05-07 15:38 19.05162 70.43186 36833 ft 507 kts 116°
2026-05-07 15:39 19.02043 70.49878 36836 ft 507 kts 116°
2026-05-07 15:39 18.98921 70.56568 36835 ft 507 kts 116°
2026-05-07 15:40 18.95816 70.63215 36835 ft 507 kts 116°
2026-05-07 15:40 18.92690 70.69897 36836 ft 507 kts 116°
2026-05-07 15:41 18.89561 70.76579 36836 ft 507 kts 116°
2026-05-07 15:41 18.86430 70.83257 36838 ft 507 kts 116°
2026-05-07 15:42 18.83300 70.89928 36838 ft 507 kts 116°
2026-05-07 15:42 18.80166 70.96596 36839 ft 507 kts 116°
2026-05-07 15:43 18.77035 71.03252 36837 ft 506 kts 116°
2026-05-07 15:43 18.73899 71.09912 36839 ft 506 kts 116°
2026-05-07 15:44 18.70764 71.16561 36838 ft 506 kts 116°
2026-05-07 15:44 18.67626 71.23210 36839 ft 506 kts 116°
2026-05-07 15:45 18.64490 71.29848 36840 ft 506 kts 116°
2026-05-07 15:45 18.61348 71.36489 36837 ft 506 kts 116°
2026-05-07 15:46 18.56655 71.46396 36840 ft 506 kts 117°
2026-05-07 15:47 18.53507 71.53034 36842 ft 506 kts 117°
2026-05-07 15:47 18.50358 71.59664 36841 ft 506 kts 117°
2026-05-07 15:48 18.47206 71.66295 36839 ft 506 kts 117°
2026-05-07 15:48 18.44050 71.72927 36839 ft 506 kts 117°
2026-05-07 15:49 18.40892 71.79554 36842 ft 506 kts 117°
2026-05-07 15:49 18.37734 71.86177 36841 ft 506 kts 117°
2026-05-07 15:50 18.34571 71.92801 36839 ft 506 kts 117°
2026-05-07 15:50 18.31407 71.99420 36840 ft 506 kts 117°
2026-05-07 15:51 18.28243 72.06032 36842 ft 506 kts 117°
2026-05-07 15:51 18.25094 72.12607 36838 ft 506 kts 117°
2026-05-07 15:52 18.21924 72.19217 36837 ft 506 kts 117°
2026-05-07 15:52 18.18751 72.25825 36837 ft 506 kts 117°
2026-05-07 15:53 18.15573 72.32439 36840 ft 506 kts 117°
2026-05-07 15:53 18.12394 72.39047 36834 ft 506 kts 117°
2026-05-07 15:54 18.09211 72.45656 36842 ft 507 kts 117°
2026-05-07 15:54 18.06021 72.52272 36844 ft 507 kts 117°
2026-05-07 15:55 18.02853 72.58836 36845 ft 507 kts 117°
2026-05-07 15:55 17.99641 72.65484 36847 ft 507 kts 117°
2026-05-07 15:56 17.96472 72.72036 36846 ft 507 kts 117°
2026-05-07 15:56 17.93278 72.78633 36852 ft 507 kts 117°
2026-05-07 15:57 17.90079 72.85234 36855 ft 507 kts 117°
2026-05-07 15:57 17.86878 72.91832 36849 ft 507 kts 117°
2026-05-07 15:58 17.83676 72.98424 36852 ft 507 kts 117°
2026-05-07 15:58 17.80471 73.05017 36856 ft 507 kts 117°
2026-05-07 15:59 17.77284 73.11566 36859 ft 507 kts 117°
2026-05-07 15:59 17.74074 73.18157 36866 ft 507 kts 117°
2026-05-07 16:00 17.70854 73.24756 36870 ft 507 kts 117°
2026-05-07 16:00 17.67633 73.31334 36870 ft 507 kts 117°
2026-05-07 16:01 17.64403 73.37924 36875 ft 507 kts 117°
2026-05-07 16:01 17.61182 73.44491 36879 ft 506 kts 117°
2026-05-07 16:02 17.57983 73.51011 36889 ft 506 kts 117°
2026-05-07 16:02 17.54762 73.57565 36902 ft 506 kts 117°
2026-05-07 16:03 17.51542 73.64114 36902 ft 505 kts 118°
2026-05-07 16:03 17.48323 73.70652 36914 ft 505 kts 118°
2026-05-07 16:04 17.45097 73.77200 36917 ft 505 kts 118°
2026-05-07 16:04 17.41874 73.83732 36926 ft 505 kts 118°
2026-05-07 16:05 17.38646 73.90270 36925 ft 505 kts 118°
2026-05-07 16:05 17.35417 73.96803 36946 ft 505 kts 118°
2026-05-07 16:06 17.32185 74.03336 36936 ft 506 kts 118°
2026-05-07 16:06 17.28949 74.09870 36925 ft 506 kts 118°
2026-05-07 16:07 17.25729 74.16368 36934 ft 506 kts 118°
2026-05-07 16:07 17.22489 74.22898 36927 ft 506 kts 118°
2026-05-07 16:08 17.19249 74.29424 36928 ft 506 kts 118°
2026-05-07 16:08 17.16010 74.35956 36922 ft 505 kts 118°
2026-05-07 16:09 17.12776 74.42476 36931 ft 505 kts 118°
2026-05-07 16:09 17.09540 74.48995 36927 ft 505 kts 118°
2026-05-07 16:10 17.06306 74.55503 36920 ft 505 kts 118°
2026-05-07 16:10 17.03065 74.62017 36921 ft 505 kts 118°
2026-05-07 16:11 16.99823 74.68526 36923 ft 505 kts 118°
2026-05-07 16:11 16.96577 74.75037 36921 ft 505 kts 118°
2026-05-07 16:12 16.93332 74.81542 36921 ft 505 kts 118°
2026-05-07 16:12 16.90104 74.88004 36917 ft 505 kts 118°
2026-05-07 16:13 16.86856 74.94500 36924 ft 505 kts 118°
2026-05-07 16:13 16.83606 75.00995 36922 ft 504 kts 118°
2026-05-07 16:14 16.80904 75.06390 36930 ft 504 kts 118°
2026-05-07 16:14 16.77653 75.12875 36940 ft 504 kts 118°
2026-05-07 16:15 16.74404 75.19349 36938 ft 503 kts 118°
2026-05-07 16:15 16.71153 75.25822 36942 ft 503 kts 118°
2026-05-07 16:16 16.67902 75.32290 36935 ft 503 kts 118°
2026-05-07 16:16 16.64651 75.38751 36939 ft 503 kts 118°
2026-05-07 16:17 16.61400 75.45208 36934 ft 503 kts 118°
2026-05-07 16:17 16.58236 75.51719 36936 ft 503 kts 116°
2026-05-07 16:18 16.55222 75.58308 36926 ft 504 kts 116°
2026-05-07 16:18 16.52220 75.64856 36933 ft 504 kts 116°
2026-05-07 16:19 16.49153 75.71471 36928 ft 504 kts 116°
2026-05-07 16:19 16.46112 75.77997 36924 ft 504 kts 116°
2026-05-07 16:20 16.43055 75.84558 36922 ft 503 kts 116°
2026-05-07 16:20 16.39998 75.91115 36929 ft 503 kts 116°
2026-05-07 16:21 16.36940 75.97671 36932 ft 503 kts 116°
2026-05-07 16:21 16.33878 76.04208 36927 ft 502 kts 117°
2026-05-07 16:22 16.30799 76.10738 36924 ft 502 kts 117°
2026-05-07 16:22 16.27723 76.17258 36926 ft 502 kts 117°
2026-05-07 16:23 16.24667 76.23735 36923 ft 501 kts 117°
2026-05-07 16:23 16.21595 76.30246 36925 ft 501 kts 117°
2026-05-07 16:24 16.18520 76.36754 36914 ft 501 kts 117°
2026-05-07 16:24 16.15446 76.43255 36916 ft 501 kts 117°
2026-05-07 16:25 16.12368 76.49757 36921 ft 500 kts 117°
2026-05-07 16:25 16.09295 76.56242 36904 ft 500 kts 117°
2026-05-07 16:26 16.06220 76.62726 36920 ft 500 kts 117°
2026-05-07 16:26 16.03143 76.69207 36899 ft 499 kts 117°
2026-05-07 16:27 16.00065 76.75684 36897 ft 500 kts 117°
2026-05-07 16:27 15.96985 76.82162 36914 ft 499 kts 117°
2026-05-07 16:28 15.93905 76.88632 36898 ft 499 kts 117°
2026-05-07 16:28 15.90844 76.95056 36898 ft 499 kts 117°
2026-05-07 16:29 15.87763 77.01517 36910 ft 499 kts 117°
2026-05-07 16:29 15.84679 77.07976 36894 ft 498 kts 117°
2026-05-07 16:30 15.81601 77.14420 36895 ft 498 kts 117°
2026-05-07 16:30 15.78522 77.20857 36911 ft 498 kts 117°
2026-05-07 16:31 15.75442 77.27295 36915 ft 498 kts 117°
2026-05-07 16:31 15.72360 77.33729 36893 ft 498 kts 117°
2026-05-07 16:32 15.69282 77.40164 36912 ft 498 kts 117°
2026-05-07 16:32 15.66213 77.46606 36901 ft 498 kts 117°
2026-05-07 16:33 15.63163 77.53003 36900 ft 498 kts 117°
2026-05-07 16:33 15.60093 77.59435 36921 ft 498 kts 117°
2026-05-07 16:34 15.57019 77.65865 36919 ft 498 kts 117°
2026-05-07 16:34 15.53939 77.72302 36907 ft 497 kts 117°
2026-05-07 16:35 15.50864 77.78724 36922 ft 497 kts 117°
2026-05-07 16:35 15.47790 77.85138 36923 ft 497 kts 117°
2026-05-07 16:36 15.44716 77.91546 36912 ft 496 kts 118°
2026-05-07 16:36 15.41644 77.97944 36910 ft 495 kts 118°
2026-05-07 16:37 15.38578 78.04329 36927 ft 495 kts 118°
2026-05-07 16:37 15.35508 78.10711 36930 ft 494 kts 118°
2026-05-07 16:38 15.32411 78.17070 36909 ft 494 kts 118°
2026-05-07 16:38 15.29320 78.23375 36917 ft 494 kts 118°
2026-05-07 16:39 15.26216 78.29711 36916 ft 493 kts 118°
2026-05-07 16:39 15.23116 78.36042 36909 ft 493 kts 118°
2026-05-07 16:40 15.20017 78.42368 36890 ft 492 kts 118°
2026-05-07 16:40 15.16916 78.48694 36900 ft 492 kts 118°
2026-05-07 16:41 15.13815 78.55015 36897 ft 492 kts 118°
2026-05-07 16:41 15.10713 78.61331 36899 ft 492 kts 118°
2026-05-07 16:42 15.07607 78.67651 36895 ft 493 kts 118°
2026-05-07 16:42 15.04503 78.73961 36891 ft 492 kts 118°
2026-05-07 16:43 15.01395 78.80272 36873 ft 491 kts 118°
2026-05-07 16:43 14.98293 78.86567 36875 ft 491 kts 118°
2026-05-07 16:44 14.95192 78.92856 36889 ft 490 kts 118°
2026-05-07 16:44 14.92115 78.99090 36884 ft 489 kts 118°
2026-05-07 16:45 14.89020 79.05355 36883 ft 489 kts 118°
2026-05-07 16:45 14.85923 79.11619 36879 ft 489 kts 118°
2026-05-07 16:46 14.82825 79.17879 36878 ft 489 kts 118°
2026-05-07 16:46 14.79725 79.24137 36872 ft 489 kts 118°
2026-05-07 16:47 14.76625 79.30391 36878 ft 489 kts 118°
2026-05-07 16:47 14.73523 79.36644 36871 ft 489 kts 118°
2026-05-07 16:48 14.70422 79.42890 36865 ft 489 kts 118°
2026-05-07 16:48 14.67320 79.49133 36871 ft 489 kts 118°
2026-05-07 16:49 14.64213 79.55379 36867 ft 489 kts 118°
2026-05-07 16:49 14.61108 79.61618 36866 ft 489 kts 118°
2026-05-07 16:50 14.58018 79.67823 36859 ft 489 kts 118°
2026-05-07 16:50 14.54908 79.74062 36866 ft 489 kts 118°
2026-05-07 16:51 14.51795 79.80301 36857 ft 489 kts 118°
2026-05-07 16:51 14.48680 79.86538 36859 ft 488 kts 118°
2026-05-07 16:52 14.45570 79.92762 36862 ft 488 kts 118°
2026-05-07 16:52 14.42460 79.98981 36854 ft 488 kts 118°
2026-05-07 16:53 14.39347 80.05200 36853 ft 488 kts 118°
2026-05-07 16:53 14.36233 80.11416 36853 ft 487 kts 118°
2026-05-07 16:54 14.33121 80.17624 36853 ft 487 kts 118°
2026-05-07 16:54 14.30007 80.23830 36856 ft 487 kts 118°
2026-05-07 16:55 14.26893 80.30031 36853 ft 487 kts 118°
2026-05-07 16:55 14.23799 80.36189 36854 ft 487 kts 118°
2026-05-07 16:56 14.20682 80.42386 36858 ft 487 kts 118°
2026-05-07 16:56 14.16006 80.51675 36858 ft 487 kts 118°
2026-05-07 16:57 14.12884 80.57872 36860 ft 487 kts 118°
2026-05-07 16:57 14.09763 80.64060 36862 ft 487 kts 118°
2026-05-07 16:58 14.06639 80.70252 36867 ft 487 kts 118°
2026-05-07 16:58 14.03512 80.76445 36866 ft 487 kts 119°
2026-05-07 16:59 14.00409 80.82585 36868 ft 487 kts 119°
2026-05-07 16:59 13.97338 80.88802 36868 ft 487 kts 118°
2026-05-07 17:00 13.94324 80.95048 36870 ft 487 kts 118°
2026-05-07 17:00 13.91817 81.00237 36871 ft 487 kts 118°
2026-05-07 17:01 13.88790 81.06471 36867 ft 487 kts 118°
2026-05-07 17:01 13.85757 81.12699 36873 ft 487 kts 118°
2026-05-07 17:02 13.82718 81.18935 36871 ft 486 kts 118°
2026-05-07 17:02 13.79685 81.25158 36872 ft 486 kts 118°
2026-05-07 17:03 13.76652 81.31375 36869 ft 486 kts 118°
2026-05-07 17:03 13.73619 81.37588 36873 ft 486 kts 118°
2026-05-07 17:04 13.70583 81.43803 36872 ft 486 kts 118°
2026-05-07 17:04 13.67568 81.49974 36867 ft 486 kts 118°
2026-05-07 17:05 13.64537 81.56182 36871 ft 486 kts 118°
2026-05-07 17:05 13.61504 81.62392 36874 ft 486 kts 118°
2026-05-07 17:06 13.58470 81.68599 36869 ft 486 kts 118°
2026-05-07 17:06 13.55438 81.74796 36871 ft 486 kts 118°
2026-05-07 17:07 13.52400 81.81002 36870 ft 486 kts 118°
2026-05-07 17:07 13.49362 81.87204 36872 ft 486 kts 118°
2026-05-07 17:08 13.46320 81.93408 36873 ft 486 kts 118°
2026-05-07 17:08 13.43300 81.99564 36872 ft 486 kts 118°
2026-05-07 17:09 13.40259 82.05757 36871 ft 486 kts 118°
2026-05-07 17:09 13.37214 82.11951 36871 ft 485 kts 118°
2026-05-07 17:10 13.34170 82.18143 36871 ft 485 kts 118°
2026-05-07 17:10 13.31126 82.24329 36875 ft 485 kts 118°
2026-05-07 17:11 13.28079 82.30514 36872 ft 486 kts 118°
2026-05-07 17:11 13.25026 82.36708 36874 ft 486 kts 118°
2026-05-07 17:12 13.21972 82.42900 36871 ft 485 kts 118°
2026-05-07 17:12 13.18922 82.49077 36873 ft 485 kts 118°
2026-05-07 17:13 13.15891 82.55215 36872 ft 485 kts 118°
2026-05-07 17:13 13.12840 82.61389 36875 ft 485 kts 118°
2026-05-07 17:14 13.09784 82.67564 36873 ft 485 kts 118°
2026-05-07 17:14 13.06732 82.73729 36874 ft 485 kts 118°
2026-05-07 17:15 13.03670 82.79912 36876 ft 485 kts 118°
2026-05-07 17:15 13.00613 82.86077 36876 ft 485 kts 118°
2026-05-07 17:16 12.97555 82.92241 36877 ft 485 kts 118°
2026-05-07 17:16 12.94492 82.98410 36876 ft 485 kts 118°
2026-05-07 17:17 12.91447 83.04540 36874 ft 485 kts 118°
2026-05-07 17:17 12.88385 83.10699 36877 ft 485 kts 118°
2026-05-07 17:18 12.85322 83.16854 36873 ft 484 kts 118°
2026-05-07 17:18 12.82261 83.23003 36874 ft 484 kts 118°
2026-05-07 17:19 12.79193 83.29160 36873 ft 484 kts 118°
2026-05-07 17:19 12.76129 83.35306 36874 ft 484 kts 118°
2026-05-07 17:20 12.73082 83.41414 36873 ft 484 kts 118°
2026-05-07 17:20 12.69998 83.47593 36874 ft 484 kts 118°
2026-05-07 17:21 12.66932 83.53732 36873 ft 484 kts 118°
2026-05-07 17:21 12.63920 83.59840 36873 ft 484 kts 117°
2026-05-07 17:22 12.60956 83.66028 36871 ft 483 kts 117°
2026-05-07 17:22 12.58002 83.72211 36868 ft 483 kts 117°
2026-05-07 17:23 12.55040 83.78381 36872 ft 483 kts 117°
2026-05-07 17:23 12.52072 83.84547 36871 ft 482 kts 117°
2026-05-07 17:24 12.49102 83.90706 36871 ft 482 kts 117°
2026-05-07 17:24 12.46134 83.96859 36874 ft 482 kts 117°
2026-05-07 17:25 12.43165 84.03011 36869 ft 482 kts 117°
2026-05-07 17:25 12.40200 84.09151 36872 ft 481 kts 117°
2026-05-07 17:26 12.37230 84.15295 36870 ft 481 kts 117°
2026-05-07 17:26 12.34261 84.21435 36871 ft 481 kts 117°
2026-05-07 17:27 12.31290 84.27573 36872 ft 481 kts 117°
2026-05-07 17:27 12.28321 84.33703 36871 ft 481 kts 117°
2026-05-07 17:28 12.25370 84.39793 36872 ft 481 kts 117°
2026-05-07 17:28 12.22399 84.45919 36872 ft 481 kts 117°
2026-05-07 17:29 12.19426 84.52045 36872 ft 481 kts 117°
2026-05-07 17:29 12.16451 84.58171 36871 ft 480 kts 117°
2026-05-07 17:30 12.13482 84.64282 36873 ft 480 kts 117°
2026-05-07 17:30 12.10510 84.70393 36871 ft 480 kts 117°
2026-05-07 17:31 12.07536 84.76504 36873 ft 480 kts 117°
2026-05-07 17:31 12.04581 84.82573 36870 ft 480 kts 117°
2026-05-07 17:32 12.01605 84.88682 36869 ft 480 kts 117°
2026-05-07 17:32 11.99134 84.93751 36869 ft 479 kts 117°
2026-05-07 17:33 11.95659 85.00873 36869 ft 479 kts 117°
2026-05-07 17:33 11.92686 85.06962 36868 ft 479 kts 117°
2026-05-07 17:34 11.89711 85.13052 36869 ft 479 kts 117°
2026-05-07 17:34 11.86735 85.19139 36871 ft 478 kts 117°
2026-05-07 17:35 11.83761 85.25218 36868 ft 478 kts 117°
2026-05-07 17:35 11.80788 85.31293 36868 ft 478 kts 117°
2026-05-07 17:36 11.77814 85.37363 36869 ft 478 kts 117°
2026-05-07 17:36 11.74860 85.43391 36868 ft 478 kts 117°
2026-05-07 17:37 11.71883 85.49460 36869 ft 478 kts 117°
2026-05-07 17:37 11.68905 85.55528 36869 ft 478 kts 117°
2026-05-07 17:38 11.65928 85.61589 36869 ft 478 kts 117°
2026-05-07 17:38 11.62950 85.67651 36866 ft 478 kts 117°
2026-05-07 17:39 11.59969 85.73713 36866 ft 478 kts 117°
2026-05-07 17:39 11.56983 85.79782 36868 ft 478 kts 117°
2026-05-07 17:40 11.53998 85.85844 36865 ft 478 kts 117°
2026-05-07 17:40 11.51010 85.91909 36865 ft 478 kts 117°
2026-05-07 17:41 11.48040 85.97935 36868 ft 478 kts 117°
2026-05-07 17:41 11.45047 86.04001 36867 ft 479 kts 117°
2026-05-07 17:42 11.42058 86.10058 36868 ft 479 kts 117°
2026-05-07 17:42 11.39062 86.16125 36866 ft 479 kts 117°
2026-05-07 17:43 11.36065 86.22187 36865 ft 479 kts 117°
2026-05-07 17:43 11.33069 86.28247 36866 ft 479 kts 117°
2026-05-07 17:44 11.30069 86.34310 36865 ft 479 kts 117°
2026-05-07 17:44 11.27086 86.40335 36865 ft 479 kts 117°
2026-05-07 17:45 11.24084 86.46393 36863 ft 479 kts 117°
2026-05-07 17:45 11.21080 86.52453 36868 ft 479 kts 117°
2026-05-07 17:46 11.18580 86.57493 36867 ft 479 kts 117°
2026-05-07 17:46 11.15574 86.63551 36866 ft 479 kts 117°
2026-05-07 17:47 11.12566 86.69607 36862 ft 479 kts 117°
2026-05-07 17:47 11.09555 86.75666 36864 ft 479 kts 117°
2026-05-07 17:48 11.06546 86.81719 36864 ft 479 kts 117°
2026-05-07 17:48 11.03551 86.87739 36864 ft 479 kts 117°
2026-05-07 17:49 11.00532 86.93803 36863 ft 480 kts 117°
2026-05-07 17:49 10.97517 86.99857 36863 ft 480 kts 117°
2026-05-07 17:50 10.94496 87.05917 36864 ft 479 kts 117°
2026-05-07 17:50 10.91477 87.11971 36863 ft 479 kts 117°
2026-05-07 17:51 10.88485 87.17968 36864 ft 479 kts 117°
2026-05-07 17:51 10.85464 87.24018 36862 ft 479 kts 117°
2026-05-07 17:52 10.82446 87.30058 36863 ft 479 kts 117°
2026-05-07 17:52 10.79419 87.36114 36860 ft 479 kts 117°
2026-05-07 17:53 10.76407 87.42137 36861 ft 479 kts 117°
2026-05-07 17:53 10.73375 87.48194 36862 ft 479 kts 117°
2026-05-07 17:54 10.70352 87.54232 36862 ft 479 kts 117°
2026-05-07 17:54 10.67328 87.60266 36860 ft 479 kts 117°
2026-05-07 17:55 10.64305 87.66296 36860 ft 478 kts 117°
2026-05-07 17:55 10.61287 87.72313 36861 ft 478 kts 117°
2026-05-07 17:56 10.58264 87.78335 36860 ft 478 kts 117°
2026-05-07 17:56 10.55240 87.84358 36859 ft 478 kts 117°
2026-05-07 17:57 10.52723 87.89367 36861 ft 478 kts 117°
2026-05-07 17:57 10.49206 87.96361 36860 ft 478 kts 117°
2026-05-07 17:58 10.46184 88.02368 36858 ft 478 kts 117°
2026-05-07 17:58 10.43157 88.08383 36860 ft 478 kts 117°
2026-05-07 17:59 10.40132 88.14390 36859 ft 478 kts 117°
2026-05-07 17:59 10.37104 88.20399 36860 ft 478 kts 117°
2026-05-07 18:00 10.34090 88.26376 36857 ft 478 kts 117°
2026-05-07 18:00 10.31062 88.32380 36858 ft 478 kts 117°
2026-05-07 18:01 10.28032 88.38383 36857 ft 478 kts 117°
2026-05-07 18:01 10.24997 88.44393 36860 ft 478 kts 117°
2026-05-07 18:02 10.20448 88.53398 36857 ft 478 kts 116°
2026-05-07 18:03 10.17572 88.59486 36862 ft 478 kts 114°
2026-05-07 18:03 10.14809 88.65623 36859 ft 478 kts 114°
2026-05-07 18:04 10.12040 88.71748 36859 ft 478 kts 114°
2026-05-07 18:04 10.09247 88.77859 36863 ft 477 kts 115°
2026-05-07 18:05 10.06441 88.83970 36861 ft 477 kts 115°
2026-05-07 18:05 10.03657 88.90028 36866 ft 477 kts 115°
2026-05-07 18:06 10.00852 88.96128 36864 ft 477 kts 114°
2026-05-07 18:06 9.98046 89.02229 36857 ft 477 kts 114°
2026-05-07 18:07 9.95242 89.08324 36861 ft 477 kts 114°
2026-05-07 18:07 9.92437 89.14417 36861 ft 476 kts 114°
2026-05-07 18:08 9.89632 89.20506 36860 ft 476 kts 114°
2026-05-07 18:08 9.86827 89.26592 36859 ft 476 kts 114°
2026-05-07 18:09 9.84020 89.32679 36860 ft 477 kts 114°
2026-05-07 18:09 9.81211 89.38767 36861 ft 477 kts 114°
2026-05-07 18:10 9.78395 89.44865 36859 ft 477 kts 114°
2026-05-07 18:10 9.75576 89.50968 36860 ft 478 kts 114°
2026-05-07 18:11 9.72753 89.57077 36860 ft 479 kts 114°
2026-05-07 18:11 9.69926 89.63190 36861 ft 479 kts 114°
2026-05-07 18:12 9.67111 89.69273 36860 ft 480 kts 114°
2026-05-07 18:12 9.64277 89.75395 36864 ft 480 kts 114°
2026-05-07 18:13 9.61441 89.81519 36864 ft 480 kts 114°
2026-05-07 18:13 9.58598 89.87652 36862 ft 480 kts 114°
2026-05-07 18:14 9.55758 89.93776 36865 ft 480 kts 114°
2026-05-07 18:14 9.52918 89.99898 36863 ft 480 kts 114°
2026-05-07 18:15 9.50077 90.06017 36864 ft 479 kts 114°
2026-05-07 18:15 9.47255 90.12093 36853 ft 479 kts 114°
2026-05-07 18:16 9.44420 90.18195 36868 ft 478 kts 114°
2026-05-07 18:16 9.41583 90.24295 36867 ft 478 kts 114°
2026-05-07 18:17 9.38749 90.30388 36867 ft 478 kts 114°
2026-05-07 18:17 9.35918 90.36469 36853 ft 478 kts 114°
2026-05-07 18:18 9.33084 90.42555 36848 ft 478 kts 114°
2026-05-07 18:18 9.30252 90.48633 36868 ft 478 kts 114°
2026-05-07 18:19 9.27416 90.54717 36866 ft 478 kts 114°
2026-05-07 18:19 9.24597 90.60760 36867 ft 478 kts 114°
2026-05-07 18:20 9.21756 90.66848 36867 ft 478 kts 114°
2026-05-07 18:20 9.18914 90.72935 36855 ft 478 kts 114°
2026-05-07 18:21 9.16066 90.79030 36849 ft 479 kts 114°
2026-05-07 18:21 9.13217 90.85125 36864 ft 479 kts 114°
2026-05-07 18:22 9.10365 90.91225 36865 ft 479 kts 114°
2026-05-07 18:22 9.07512 90.97322 36865 ft 480 kts 114°
2026-05-07 18:23 9.04673 91.03386 36848 ft 480 kts 114°
2026-05-07 18:23 9.01815 91.09489 36850 ft 480 kts 114°
2026-05-07 18:24 8.98957 91.15588 36852 ft 480 kts 114°
2026-05-07 18:24 8.96100 91.21682 36867 ft 480 kts 114°
2026-05-07 18:25 8.93239 91.27781 36866 ft 480 kts 114°
2026-05-07 18:25 8.90379 91.33873 36852 ft 480 kts 114°
2026-05-07 18:26 8.87518 91.39967 36852 ft 480 kts 114°
2026-05-07 18:26 8.84656 91.46061 36859 ft 480 kts 114°
2026-05-07 18:27 8.81792 91.52154 36856 ft 480 kts 114°
2026-05-07 18:27 8.78928 91.58245 36866 ft 480 kts 114°
2026-05-07 18:28 8.76060 91.64339 36868 ft 480 kts 114°
2026-05-07 18:28 8.73215 91.70384 36867 ft 480 kts 114°
2026-05-07 18:29 8.70346 91.76476 36854 ft 480 kts 114°
2026-05-07 18:29 8.67479 91.82562 36852 ft 480 kts 115°
2026-05-07 18:30 8.64604 91.88662 36849 ft 480 kts 115°
2026-05-07 18:30 8.61733 91.94751 36853 ft 480 kts 115°
2026-05-07 18:31 8.58863 92.00848 36848 ft 480 kts 114°
2026-05-07 18:31 8.56113 92.06990 36853 ft 480 kts 113°
2026-05-07 18:32 8.53408 92.13167 36862 ft 480 kts 113°
2026-05-07 18:32 8.51151 92.18298 36849 ft 480 kts 113°
2026-05-07 18:33 8.48426 92.24458 36855 ft 480 kts 113°
2026-05-07 18:33 8.45253 92.31606 36867 ft 481 kts 114°
2026-05-07 18:34 8.42956 92.36779 36851 ft 481 kts 114°
2026-05-07 18:34 8.40219 92.42940 36853 ft 481 kts 114°
2026-05-07 18:35 8.37495 92.49070 36867 ft 481 kts 114°
2026-05-07 18:35 8.34750 92.55246 36851 ft 482 kts 114°
2026-05-07 18:36 8.32003 92.61422 36849 ft 482 kts 114°
2026-05-07 18:36 8.29253 92.67602 36850 ft 482 kts 114°
2026-05-07 18:37 8.26504 92.73777 36853 ft 483 kts 114°
2026-05-07 18:37 8.23747 92.79966 36856 ft 483 kts 114°
2026-05-07 18:38 8.20994 92.86145 36851 ft 483 kts 114°
2026-05-07 18:38 8.18239 92.92324 36851 ft 482 kts 114°
2026-05-07 18:39 8.15486 92.98495 36851 ft 482 kts 114°
2026-05-07 18:39 8.12732 93.04667 36854 ft 482 kts 114°
2026-05-07 18:40 8.09995 93.10798 36847 ft 482 kts 114°
2026-05-07 18:40 8.07241 93.16963 36848 ft 482 kts 114°
2026-05-07 18:41 8.04485 93.23129 36848 ft 482 kts 114°
2026-05-07 18:41 8.01730 93.29294 36849 ft 482 kts 114°
2026-05-07 18:42 7.98975 93.35453 36849 ft 482 kts 114°
2026-05-07 18:42 7.96218 93.41617 36852 ft 482 kts 114°
2026-05-07 18:43 7.93756 93.47848 36841 ft 482 kts 104°
2026-05-07 18:43 7.92807 93.54525 36847 ft 482 kts 91°
2026-05-07 18:44 7.93138 93.61281 36846 ft 482 kts 86°
2026-05-07 18:44 7.93609 93.68025 36846 ft 482 kts 86°
2026-05-07 18:45 7.94037 93.74781 36852 ft 482 kts 86°
2026-05-07 18:45 7.94427 93.81532 36853 ft 482 kts 87°
2026-05-07 18:46 7.94807 93.88289 36842 ft 482 kts 87°
2026-05-07 18:46 7.95187 93.95039 36849 ft 481 kts 87°
2026-05-07 18:47 7.95565 94.01730 36850 ft 481 kts 87°
2026-05-07 18:47 7.95946 94.08504 36847 ft 480 kts 87°
2026-05-07 18:48 7.96321 94.15183 36849 ft 480 kts 87°
2026-05-07 18:48 7.96698 94.21905 36850 ft 479 kts 87°
2026-05-07 18:49 7.97072 94.28616 36846 ft 479 kts 87°
2026-05-07 18:49 7.97446 94.35329 36846 ft 479 kts 87°
2026-05-07 18:50 7.97818 94.42043 36841 ft 479 kts 87°
2026-05-07 18:50 7.98045 94.48758 36839 ft 478 kts 89°
2026-05-07 18:51 7.98183 94.55465 36844 ft 478 kts 89°
2026-05-07 18:51 7.98331 94.62139 36839 ft 478 kts 89°
2026-05-07 18:52 7.98497 94.68850 36846 ft 478 kts 89°
2026-05-07 18:52 7.98668 94.75556 36845 ft 478 kts 89°
2026-05-07 18:53 7.98839 94.82258 36846 ft 478 kts 89°
2026-05-07 18:53 7.99007 94.88964 36840 ft 478 kts 89°
2026-05-07 18:54 7.99174 94.95670 36845 ft 478 kts 89°
2026-05-07 18:54 7.99340 95.02374 36838 ft 478 kts 89°
2026-05-07 18:55 7.99505 95.09085 36846 ft 478 kts 89°
2026-05-07 18:55 7.99668 95.15747 36844 ft 478 kts 89°
2026-05-07 18:56 7.99831 95.22453 36834 ft 478 kts 89°
2026-05-07 18:56 7.99992 95.29160 36845 ft 478 kts 89°
2026-05-07 18:57 8.00153 95.35868 36847 ft 479 kts 89°
2026-05-07 18:57 8.00313 95.42594 36835 ft 479 kts 89°
2026-05-07 18:58 8.00472 95.49306 36850 ft 478 kts 89°
2026-05-07 18:58 8.00660 95.56016 36846 ft 478 kts 88°
2026-05-07 18:59 8.00889 95.62724 36846 ft 478 kts 88°
2026-05-07 18:59 8.01118 95.69428 36839 ft 478 kts 88°
2026-05-07 19:00 8.01338 95.76095 36850 ft 478 kts 88°
2026-05-07 19:00 8.01555 95.82799 36842 ft 478 kts 88°
2026-05-07 19:01 8.01770 95.89506 36840 ft 477 kts 88°
2026-05-07 19:01 8.01984 95.96192 36843 ft 477 kts 88°
2026-05-07 19:02 8.02197 96.02884 36849 ft 477 kts 88°
2026-05-07 19:02 8.02409 96.09571 36838 ft 476 kts 88°
2026-05-07 19:03 8.02619 96.16218 36847 ft 476 kts 88°
2026-05-07 19:03 8.02829 96.22907 36843 ft 477 kts 88°
2026-05-07 19:04 8.03037 96.29597 36838 ft 477 kts 88°
2026-05-07 19:04 8.03245 96.36294 36836 ft 476 kts 88°
2026-05-07 19:04 8.03349 96.39635 36341 ft 478 kts 88°
2026-05-07 19:05 8.03452 96.42994 35675 ft 478 kts 88°
2026-05-07 19:05 8.03556 96.46357 34827 ft 480 kts 88°
2026-05-07 19:05 8.03659 96.49735 33924 ft 484 kts 88°
2026-05-07 19:05 8.03764 96.53148 32910 ft 487 kts 88°
2026-05-07 19:06 8.03868 96.56570 31902 ft 490 kts 88°
2026-05-07 19:06 8.04077 96.63433 30043 ft 492 kts 88°
2026-05-07 19:06 8.04181 96.66877 29180 ft 488 kts 88°
2026-05-07 19:07 8.04284 96.70284 28421 ft 483 kts 88°
2026-05-07 19:07 8.04386 96.73661 27700 ft 478 kts 88°
2026-05-07 19:07 8.04486 96.76992 27002 ft 474 kts 88°
2026-05-07 19:08 8.04675 96.83314 25692 ft 466 kts 88°
2026-05-07 19:08 8.04772 96.86538 25008 ft 463 kts 88°
2026-05-07 19:08 8.04868 96.89777 24325 ft 461 kts 89°
2026-05-07 19:08 8.04963 96.93001 23655 ft 459 kts 89°
2026-05-07 19:09 8.05058 96.96208 22882 ft 457 kts 89°
2026-05-07 19:09 8.05152 96.99401 22170 ft 453 kts 89°
2026-05-07 19:09 8.05245 97.02564 21505 ft 449 kts 89°
2026-05-07 19:09 8.05337 97.05701 20847 ft 444 kts 89°
2026-05-07 19:10 8.05428 97.08800 20209 ft 440 kts 89°
2026-05-07 19:10 8.05518 97.11876 19569 ft 437 kts 89°
2026-05-07 19:10 8.05607 97.14927 18925 ft 434 kts 89°
2026-05-07 19:10 8.05695 97.17964 18308 ft 431 kts 89°
2026-05-07 19:11 8.05782 97.20969 17646 ft 427 kts 89°
2026-05-07 19:11 8.05892 97.23951 16988 ft 423 kts 88°
2026-05-07 19:11 8.06048 97.26895 16392 ft 419 kts 87°
2026-05-07 19:11 8.06219 97.29816 15844 ft 414 kts 87°
2026-05-07 19:12 8.06387 97.32685 15370 ft 406 kts 87°
2026-05-07 19:12 8.06548 97.35514 14695 ft 404 kts 87°
2026-05-07 19:12 8.06706 97.38358 13990 ft 405 kts 87°
2026-05-07 19:12 8.06858 97.41170 13511 ft 398 kts 87°
2026-05-07 19:13 8.07007 97.43924 13047 ft 390 kts 87°
2026-05-07 19:13 8.07153 97.46640 12578 ft 383 kts 87°
2026-05-07 19:13 8.07295 97.49300 12148 ft 376 kts 88°
2026-05-07 19:13 8.07434 97.51890 11663 ft 372 kts 88°
2026-05-07 19:14 8.07572 97.54468 11438 ft 360 kts 88°
2026-05-07 19:14 8.07703 97.56941 11350 ft 346 kts 88°
2026-05-07 19:14 8.07826 97.59314 11266 ft 332 kts 88°
2026-05-07 19:14 8.07943 97.61598 11187 ft 319 kts 88°
2026-05-07 19:15 8.08056 97.63794 11107 ft 307 kts 88°
2026-05-07 19:15 8.08164 97.65905 11022 ft 296 kts 88°
2026-05-07 19:15 8.08269 97.67953 10898 ft 287 kts 88°
2026-05-07 19:15 8.08371 97.69943 10702 ft 281 kts 88°
2026-05-07 19:16 8.08471 97.71907 10426 ft 279 kts 88°
2026-05-07 19:16 8.08571 97.73862 10107 ft 279 kts 88°
2026-05-07 19:16 8.08671 97.75815 9802 ft 278 kts 88°
2026-05-07 19:16 8.08770 97.77762 9488 ft 277 kts 88°
2026-05-07 19:17 8.08869 97.79697 9173 ft 276 kts 88°
2026-05-07 19:17 8.08868 97.81624 8832 ft 274 kts 95°
2026-05-07 19:17 8.08684 97.83535 8508 ft 273 kts 97°
2026-05-07 19:17 8.08476 97.85440 8206 ft 272 kts 97°
2026-05-07 19:18 8.08284 97.87331 7916 ft 271 kts 96°
2026-05-07 19:18 8.08105 97.89219 7614 ft 270 kts 96°
2026-05-07 19:18 8.07934 97.91079 7333 ft 269 kts 96°
2026-05-07 19:18 8.07764 97.92956 7035 ft 267 kts 96°
2026-05-07 19:19 8.07745 97.94791 6931 ft 256 kts 86°
2026-05-07 19:19 8.07931 97.96546 6848 ft 246 kts 84°
2026-05-07 19:19 8.08122 97.98230 6757 ft 237 kts 85°
2026-05-07 19:19 8.08293 97.99851 6654 ft 227 kts 85°
2026-05-07 19:20 8.08450 98.01424 6427 ft 223 kts 85°
2026-05-07 19:20 8.08605 98.02972 6168 ft 221 kts 85°
2026-05-07 19:20 8.08759 98.04510 5854 ft 220 kts 85°
2026-05-07 19:20 8.08910 98.06043 5562 ft 219 kts 85°
2026-05-07 19:21 8.09059 98.07570 5305 ft 217 kts 86°
2026-05-07 19:21 8.09205 98.09074 5006 ft 217 kts 86°
2026-05-07 19:21 8.09352 98.10596 4658 ft 218 kts 86°
2026-05-07 19:21 8.09494 98.12114 4373 ft 216 kts 86°
2026-05-07 19:22 8.09633 98.13616 4093 ft 215 kts 86°
2026-05-07 19:22 8.09772 98.15116 3809 ft 214 kts 86°
2026-05-07 19:22 8.09908 98.16581 3650 ft 203 kts 85°
2026-05-07 19:22 8.10037 98.17960 3482 ft 192 kts 86°
2026-05-07 19:23 8.10157 98.19257 3289 ft 184 kts 86°
2026-05-07 19:23 8.10275 98.20530 3012 ft 181 kts 86°
2026-05-07 19:23 8.10390 98.21777 2724 ft 177 kts 85°
2026-05-07 19:23 8.10505 98.23002 2373 ft 174 kts 85°
2026-05-07 19:24 8.10620 98.24224 1988 ft 175 kts 85°
2026-05-07 19:24 8.10732 98.25414 1592 ft 168 kts 85°
2026-05-07 19:24 8.10844 98.26595 1012 ft 170 kts 85°
2026-05-07 19:24 8.10956 98.27784 532 ft 169 kts 85°
2026-05-07 19:25 8.11061 98.28957 375 ft 167 kts 85°
2026-05-07 19:25 8.11183 98.30165 148 ft 176 kts 85°
2026-05-07 19:25 8.11283 98.31355 39 ft 159 kts 86°
2026-05-07 19:25 8.11380 98.32305 70 ft 105 kts 85°
2026-05-07 19:26 8.11419 98.32763 93 ft 44 kts 85°
2026-05-07 19:26 8.11434 98.32949 95 ft 16 kts 87°
2026-05-07 19:26 8.11359 98.33011 97 ft 16 kts 187°
2026-05-07 19:26 8.11302 98.32918 95 ft 18 kts 262°
2026-05-07 19:27 8.11289 98.32788 93 ft 20 kts 265°
2026-05-07 19:27 8.11277 98.32646 91 ft 21 kts 265°
2026-05-07 19:27 8.11265 98.32503 86 ft 21 kts 266°
2026-05-07 19:27 8.11253 98.32360 83 ft 21 kts 262°
2026-05-07 19:28 8.11236 98.32214 73 ft 22 kts 265°
2026-05-07 19:28 8.11222 98.32048 66 ft 26 kts 265°
2026-05-07 19:28 8.11206 98.31867 53 ft 26 kts 264°
2026-05-07 19:28 8.11189 98.31682 48 ft 27 kts 264°
2026-05-07 19:29 8.11171 98.31513 43 ft 21 kts 263°
2026-05-07 19:29 8.11156 98.31357 38 ft 24 kts 265°
2026-05-07 19:29 8.11141 98.31195 35 ft 13 kts 264°
2026-05-07 19:29 8.11132 98.31100 35 ft 14 kts 264°
2026-05-07 19:30 8.11121 98.30999 34 ft 15 kts 257°
2026-05-07 19:30 8.11086 98.30901 34 ft 15 kts 262°
2026-05-07 19:30 8.11076 98.30795 34 ft 15 kts 265°
2026-05-07 19:30 8.11064 98.30697 33 ft 11 kts 264°
2026-05-07 19:31 8.11058 98.30614 33 ft 12 kts 266°
2026-05-07 19:31 8.11051 98.30526 32 ft 13 kts 262°
2026-05-07 19:31 8.10983 98.30476 32 ft 13 kts 194°
2026-05-07 19:31 8.10903 98.30456 32 ft 5 kts 194°
2026-05-07 19:32 8.10867 98.30453 32 ft 5 kts 160°
2026-05-07 19:32 8.10864 98.30456 31 ft 0 kts 143°
2026-05-07 19:32 8.10864 98.30457 31 ft 0 kts 135°
2026-05-07 19:32 8.10862 98.30461 31 ft 1 kts 115°
2026-05-07 19:33 8.10860 98.30468 32 ft 1 kts 109°
2026-05-07 19:33 8.10856 98.30480 32 ft 2 kts 110°
2026-05-07 19:33 8.10851 98.30499 32 ft 3 kts 105°
2026-05-07 19:33 8.10848 98.30507 32 ft 1 kts 105°
2026-05-07 19:34 8.10847 98.30512 32 ft 1 kts 105°
2026-05-07 19:34 8.10844 98.30522 32 ft 2 kts 105°
2026-05-07 19:34 8.10843 98.30527 32 ft 0 kts 105°